User: anonymous   Login
Location: Mentone
(34.5413°N, 85.5351°W)
Time: 08:01:16
(UTC-05:00)
Language:

Cosmos 1703 - Orbit

View from above orbital plane
View from above orbital plane
View from above satellite
View from above satellite

Ground track
Ground track

The orbit data is extracted from the following two-line orbital elements,

1 16262U 85108A   15141.57920796  .00003871  00000-0  24714-3 0  9996
2 16262 082.4952 272.7778 0008457 021.5045 338.6537 15.08383280604609
Epoch (UTC): 21 May 2015 13:54:03
Eccentricity: 0.0008457
inclination: 82.4952°
perigee height: 535 km
apogee height: 547 km
right ascension of ascending node: 272.7778°
argument of perigee: 21.5045°
revolutions per day: 15.08383280
mean anomaly at epoch: 338.6537°
orbit number at epoch: 60460

The dashed part of the orbit path shows where the satellite is in the earth's shadow,  

DLR